sat.trackr.live / text

‹ back to catalog

STARLINK-30452

NORAD 57925 · 2023-147N

PAYLOAD ACTIVE UNKNOWN

§ Identity

Operator
Country
US
Launch date
2023-09-24
Launch site
AFETR
Launch vehicle
Mass (kg)
RCS (m²)

Purposes: comms

External: N2YO · Heavens-Above · Gunter

§ Orbital elements

Epoch: 2026-09-20T19:21:31.092768Z

Period
94.27 min
Inclination
43.0045°
Eccentricity
0.0001389
Mean motion
15.27581213 rev/d
Perigee alt
482.1 km
Apogee alt
484.0 km
Semi-major
6,861.2 km
B*
2.8602e-5
RAAN
303.7135°
Arg perigee
273.8062°
Mean anomaly
86.2631°
Rev number
16,643

§ Raw data

STARLINK-304521 57925U 23147N   26263.80660987  .00000525  00000+0  28602-4 0  99912 57925  43.0045 303.7135 0001389 273.8062  86.2631 15.27581213166438

JSON: /api/v1/satellites/57925 · /tle

For live sub-satellite position, see the globe view (requires WebGL).

§ Visibility from observer

Set your observer location to see the next 7 days of passes ≥ 10°. The values pass through the URL so the page stays shareable.

No JS? Fill the form by hand. The geolocation button needs JavaScript.